Lid_Strength_Index
3 3 3 3 3 3 3 3 2 2 2 2 3 2 2 2 3 7 10 7 4 -1 -0 5 7 8 9 11 11 11 15 17 15 14 13 11 11 9 8 9 9 8 9 8 8
4 4 4 4 3 3 3 3 3 2 2 2 2 2 2 3 7 9 3 -1 -1 -1 6 7 8 8 10 11 12 13 16 15 12 12 13 12 11 10 10 9 10 10 8 8 7
4 4 4 4 3 3 3 3 3 3 3 3 2 2 2 4 11 10 -1 -1 -1 1 6 7 8 10 12 12 12 14 15 13 11 11 10 11 11 9 10 11 9 10 9 8 9
4 4 4 4 4 3 3 3 3 3 3 3 2 2 3 7 15 9 -2 -1 -1 3 6 9 10 13 13 13 13 14 12 12 11 10 11 11 10 11 10 10 8 8 8 9 8
4 4 4 4 4 4 3 3 3 3 3 3 2 2 7 12 12 8 -2 -1 3 5 8 11 13 13 15 14 13 13 13 11 11 11 11 11 11 11 11 9 8 7 7 8 9
4 4 4 4 4 4 3 3 3 3 3 3 2 2 11 13 9 8 4 5 6 9 11 12 12 12 14 13 13 13 12 12 11 11 11 12 11 11 10 8 8 8 9 8 8
4 4 4 4 4 4 3 3 4 3 3 2 2 3 11 12 9 9 8 11 9 9 11 11 11 13 14 15 12 12 14 12 11 11 12 11 13 13 10 9 10 9 9 8 8
4 4 4 4 4 4 4 4 3 3 2 2 1 5 11 9 9 10 10 9 9 10 10 10 11 13 14 13 14 14 15 17 13 11 10 11 15 11 9 9 10 10 9 9 8
4 4 4 4 4 4 4 4 3 2 2 1 6 9 13 5 9 9 10 10 9 9 10 8 12 14 14 17 18 16 17 17 15 11 12 12 13 10 8 8 10 10 10 9 8
4 4 4 4 4 4 4 4 2 3 3 3 6 12 11 11 9 8 9 9 10 10 11 12 15 16 16 16 19 17 17 16 16 13 13 14 13 10 8 8 10 10 10 9 9
4 4 4 4 4 5 7 11 11 11 10 11 11 10 9 8 8 9 8 10 10 12 15 15 17 18 15 14 13 14 16 16 14 12 14 12 12 11 9 8 9 10 10 10 10
4 4 4 4 5 5 9 11 11 10 13 9 9 9 7 8 11 10 8 12 13 15 15 16 18 14 12 12 13 14 16 16 14 12 12 12 12 9 8 8 8 9 9 10 10
4 4 5 5 5 8 11 11 9 9 13 10 8 9 10 11 12 10 9 11 13 15 16 17 15 11 12 13 14 15 15 16 15 12 11 12 13 11 8 9 8 7 8 9 8
4 5 5 5 8 10 12 10 9 8 16 13 11 11 10 12 11 8 8 11 13 15 14 16 13 12 13 13 13 16 13 13 13 14 16 12 17 14 11 10 9 9 8 7 6
4 4 5 5 11 11 10 9 8 9 20 13 13 11 11 11 10 9 8 10 13 13 13 15 14 13 14 13 12 15 12 13 13 14 16 15 18 16 11 12 10 9 7 6 6
4 5 5 7 10 9 8 9 8 16 20 14 13 14 13 11 10 9 10 10 11 13 13 13 11 12 13 11 12 11 14 14 15 16 21 16 16 16 14 12 10 8 7 7 7
4 5 7 7 11 9 9 9 15 20 14 15 15 14 14 13 12 11 12 13 15 17 16 14 12 11 10 13 12 14 16 22 21 21 21 15 16 15 11 10 9 9 8 7 7
5 6 6 7 9 8 10 14 18 15 16 14 14 14 14 13 13 13 14 15 12 14 17 17 17 13 11 13 15 16 16 20 24 22 19 13 18 15 9 8 8 8 8 8 8
6 9 9 6 6 9 12 18 18 16 14 15 15 16 16 14 14 14 15 14 13 13 17 17 15 11 10 11 12 15 16 12 17 16 19 17 14 11 9 10 9 9 9 9 8
11 10 8 7 8 10 14 15 15 13 13 14 18 15 19 16 16 16 15 12 12 11 12 14 16 12 11 11 11 13 11 16 17 21 22 18 17 17 13 12 11 11 11 10 9
13 11 8 8 8 12 16 16 13 12 12 14 16 16 16 16 16 16 15 12 10 11 11 13 13 14 13 14 16 16 16 13 14 16 20 21 18 12 13 12 12 11 10 10 10
14 13 9 9 13 16 16 14 10 12 12 13 14 14 15 15 17 16 15 13 9 10 13 12 13 16 15 12 11 13 14 14 17 19 16 17 17 10 11 11 11 11 10 10 9
14 14 8 10 15 16 14 12 11 12 13 13 14 13 14 16 20 15 14 10 10 10 12 12 16 17 18 15 13 13 12 12 13 14 17 19 17 10 10 12 11 12 11 10 10
12 13 11 12 13 15 16 14 13 10 12 12 14 13 15 16 16 17 14 12 10 10 7 8 13 16 19 15 13 14 13 13 13 17 17 16 15 13 12 13 13 12 11 12 10
13 13 13 15 14 15 15 13 13 13 12 13 15 14 16 18 17 16 15 14 11 8 11 11 16 16 13 13 13 14 14 13 14 14 17 16 15 13 12 13 13 12 12 12 12
14 15 13 14 13 14 13 14 13 12 13 15 16 14 15 17 16 18 16 15 14 11 12 11 14 12 14 11 12 14 14 13 13 15 15 14 15 12 11 11 13 13 13 13 12
11 12 13 13 14 15 15 13 12 13 12 12 14 15 16 14 13 13 14 13 12 13 13 12 13 14 17 13 15 18 14 14 15 14 14 17 13 12 13 13 13 13 11 11 11